Strona główna
METAR-TAF:

METAR-TAF

Lotnisko :

Paso de los Libres, Argentyna

Szerokość geograficzna: 29-41S, Długość geograficzna: 057-09W, wysokość: 69 m

Aktualna obserwacja pogody

Raport powstał 10 minut temu, godzina 14:00 UTC
Wiatr 8 kt od wschód
Temperatura 25°C
Wilgotność 50%
Ciśnienie 1017 hPa
Widzialność 10 km lub więcej
Brak chmur poniżej 1500 m i brak chmur cumulonimbus

METAR: SARL 201400Z 09008KT CAVOK 25/14 Q1017

czas: 11:10 (14:10 UTC)


TAF: brakujący

Obserwacja i prognoza pogody dla ponad 4000 lotnisk (raport METAR i TAF).

Dostępne stacje oznaczono żółtymi i czerwonymi punktami na mapie.

Najedź kursorem aby zobaczyć nazwę stacji.

Kliknij aby zobaczyć obserwacje i prognozy pogody.

Aby zmienić mapę: kliknij na zielony przycisk z czarnym krzyżykiem, aby powiększyć; na zielony przycisk z myślnikiem, aby pomniejszyć; na zielone strzałki, aby przejść do map sąsiednich.


METAR-TAF: